Miscellaneous Local Product
Issued by NWS North Platte, NE

Home | Current Version | Previous Version | Text Only | Print | Product List | Glossary On
Versions: 1 2 3 4 5 6 7 8 9 10 11 12 13 14 15 16 17 18 19 20 21 22 23 24 25 26 27 28 29 30 31 32 33 34 35 36 37 38 39 40 41 42 43 44 45 46 47 48 49 50
000
AXUS43 KLBF 171510
MISLBF


WESTERN AND NORTH CENTRAL NEBRASKA HOURLY WEATHER ROUNDUP
NATIONAL WEATHER SERVICE NORTH PLATTE NE
1000 AM CDT THU AUG 17 2017

NOTE: "FAIR" INDICATES FEW OR NO CLOUDS BELOW 12,000 FEET WITH NO
SIGNIFICANT WEATHER AND/OR OBSTRUCTIONS TO VISIBILITY.

NOTE: STATIONS NOT REPORTING VARIABLES SUCH AS SKY/WEATHER OR
PRESSURE ARE PROVIDED BY RAWS AND APRS NETWORKS AND ARE NOT UNDER
NATIONAL WEATHER SERVICE QUALITY CONTROL.

...OBSERVATIONS IN AND NEAR THE EASTERN PANHANDLE OF NEBRASKA...

CITY           SKY/WX    TMP DP  RH WIND       PRES   REMARKS
PINE RIDGE     SUNNY     70  55  59 S9        29.99F
GORDON         FAIR      69  56  62 SW6       30.03S
CHADRON        SUNNY     68  53  58 W3        29.99F
ALLIANCE       SUNNY     70  54  56 S10G23    30.05F
SIDNEY         SUNNY     68  53  58 SW13      30.12S
CRESCENT LAKE    N/A     70  57  62 S7G14       N/A
$$

...OBSERVATIONS IN NORTHERN NEBRASKA AND FAR SOUTHERN SOUTH DAKOTA...

CITY           SKY/WX    TMP DP  RH WIND       PRES   REMARKS
WINNER         FAIR      73  56  54 CALM      29.97S
VALENTINE      SUNNY     67  54  63 SW7       30.01S
THEDFORD       SUNNY     72  57  58 SW8       30.05S
AINSWORTH      SUNNY     69  58  70 W3        30.02S
O`NEILL        SUNNY     67  56  67 W6        30.00S
ORD            SUNNY     69  52  54 W7        30.01R
BROKEN BOW     SUNNY     69  56  62 W6        30.04S
VALENTINE NWR    N/A     66  56  70 W6          N/A
HALSEY           N/A     65  55  70 CALM        N/A
BUTTE            N/A     66  57  73 W3          N/A
CHAMBERS         N/A     72  56  56 SW3         N/A
EWING            N/A     68  60  75 NW5         N/A
$$

...OBSERVATIONS IN SOUTHWEST NEBRASKA AND FAR NORTHEAST COLORADO...

CITY           SKY/WX    TMP DP  RH WIND       PRES   REMARKS
HOLYOKE        FAIR      73  61  64 S13       30.11F
IMPERIAL       SUNNY     70  58  65 SW6       30.10F
OGALLALA       SUNNY     65  60  82 CALM      30.09S
NORTH PLATTE   SUNNY     67  59  75 W7        30.07F
MCCOOK         SUNNY     66  60  81 W8        30.09S
LEXINGTON      SUNNY     68  60  75 W5        30.06S
STAPLETON        N/A     70  60  71 CALM        N/A
GOTHENBURG       N/A     62  54  74 W5          N/A
CALLAWAY         N/A     63  62  98 W7          N/A
$$

...OBSERVATIONS IN CENTRAL LINCOLN COUNTY AREA...

CITY           SKY/WX    TMP DP  RH WIND       PRES   REMARKS
N.P. AIRPORT   SUNNY     67  59  75 W7        30.07F
N.P. SOUTHEAST   N/A     67  59  74 W3          N/A
N.P. HILLCREST   N/A     64  59  84 W6          N/A
$$

...SOME OBSERVATIONS FROM AROUND THE REGION...

CITY           SKY/WX    TMP DP  RH WIND       PRES   REMARKS
DENVER         MOSUNNY   73  47  39 SW15      30.16S
LIMON          SUNNY     68  51  54 S9G18     30.21S
ASPEN          CLOUDY    58  36  43 CALM      30.37S
LARAMIE        SUNNY     66  40  38 SW15      30.26S
CASPER         CLOUDY    70  42  36 SW18      30.12R
CHEYENNE       SUNNY     71  42  35 W15       30.18S
SCOTTSBLUFF    SUNNY     66  55  67 E7        30.05F
GRAND ISLAND   SUNNY     69  58  67 W10       30.02S
OMAHA          SUNNY     72  60  66 NW16      29.91R
SIOUX FALLS    MOSUNNY   68  62  81 NW15      29.89R
PIERRE         SUNNY     65  51  60 SE3       29.94S
RAPID CITY     CLOUDY    65  53  65 SE6       29.95S
BISMARCK       SUNNY     67  58  72 CALM      29.91S
KANSAS CITY    MOSUNNY   73  65  75 W12       29.96R
HILL CITY      SUNNY     72  63  73 W9        30.09S
WICHITA        MOSUNNY   76  63  64 NW7       30.04R
DODGE CITY     CLOUDY    72  59  63 NW6       30.11S
OKLAHOMA CITY  MOSUNNY   76  70  82 N3        30.04R
DALLAS         CLOUDY    81  75  82 S13       29.99R
AMARILLO       SUNNY     77  63  61 S7        30.17S
$$




USA.gov is the U.S. government's official web portal to all federal, state and local government web resources and services.